* Astronomy

Members Login
Username 
 
Password 
    Remember Me  
Post Info TOPIC: Asteroid 2008 US4


L

Posts: 131433
Date:
Asteroid 2008 US4
Permalink  
 


Asteroid 2008 US4
Orbital elements:
2008 US4 Earth MOID = 0.0766 AU
Epoch 2008 Nov. 30.0 TT = JDT 2454800.5 MPC
M 354.19644 (2000.0) P Q
n 0.27947055 Peri. 72.60840 -0.23005048 -0.96590764
a 2.3169252 Node 31.46183 +0.78401480 -0.25623298
e 0.6313325 Incl. 13.15003 +0.57653930 -0.03697418
P 3.53 H 20.5 G 0.15 U 8

MPEC 2008-U60

__________________
Page 1 of 1  sorted by
Quick Reply

Please log in to post quick replies.



Create your own FREE Forum
Report Abuse
Powered by ActiveBoard